Change the Weather History Date:

Thursday, February 20, 2014

  Actual Average Record
Temperature  
Mean Temperature 33 °F -  
Max Temperature 42 °F 42 °F 70 °F (1981)
Min Temperature 24 °F 21 °F -3 °F (1959)
Degree Days  
Heating Degree Days 32    
Moisture  
Dew Point 25 °F    
Average Humidity 72    
Maximum Humidity 100    
Minimum Humidity 49    
Precipitation  
Precipitation 0.01 in - - ()
Sea Level Pressure  
Sea Level Pressure 29.65 in    
Wind  
Wind Speed 15 mph (NW)    
Max Wind Speed 37 mph    
Max Gust Speed 48 mph    
Visibility 9 miles    
Events Snow    
Averages and records for this station are not official NWS values.
T = Trace of Precipitation, MM = Missing Value Source: NWS Daily Summary

Daily Weather History Graph

Daily Weather History Graph

Search for Another Location

Airport or City:

Trip Planner

Search our weather history database for the weather conditions in past years. The results will help you decide how hot, cold, wet, or windy it might be!

Date:

Astronomy

Feb. 20, 2014 Rise Set
Actual Time 7:17 AM CST 6:11 PM CST
Civil Twilight 6:49 AM CST 6:39 PM CST
Nautical Twilight 6:17 AM CST 7:11 PM CST
Astronomical Twilight 5:46 AM CST 7:42 PM CST
Moon No Moon Rise 9:58 AM CST (2/20)
Length of Visible Light 11h 49m
Length of Day
10h 53m
Waning Gibbous, 70% of the Moon is Illuminated
Feb 20
Waning Gibbous
Feb 22
Last Quarter
Mar 1
New
Mar 8
First Quarter
Mar 16
Full

Hourly Weather History & Observations

Time (CST) Temp. Windchill Dew Point Humidity Pressure Visibility Wind Dir Wind Speed Gust Speed Precip Events Conditions
12:15 AM 33.8 °F 27.0 °F 26.6 °F 75% 29.53 in 10.0 mi SE 8.1 mph - N/A   Clear
12:35 AM 35.6 °F 29.9 °F 28.4 °F 75% 29.54 in 10.0 mi SE 6.9 mph - N/A   Clear
12:55 AM 35.6 °F 32.8 °F 28.4 °F 75% 29.55 in 10.0 mi ESE 3.5 mph - N/A   Clear
1:15 AM 32.0 °F - 26.6 °F 80% 29.55 in 10.0 mi Calm Calm - N/A   Clear
1:35 AM 32.0 °F - 26.6 °F 80% 29.55 in 10.0 mi Calm Calm - N/A   Clear
1:55 AM 28.4 °F 23.3 °F 24.8 °F 86% 29.55 in 10.0 mi North 4.6 mph - N/A   Scattered Clouds
2:15 AM 30.2 °F 24.3 °F 28.4 °F 93% 29.54 in 10.0 mi North 5.8 mph - N/A   Overcast
2:35 AM 35.6 °F 27.5 °F 30.2 °F 81% 29.57 in 10.0 mi NNW 11.5 mph 25.3 mph N/A   Overcast
2:55 AM 35.6 °F 28.6 °F 28.4 °F 75% 29.59 in 10.0 mi NNW 9.2 mph - N/A   Overcast
3:15 AM 33.8 °F 30.8 °F 28.4 °F 81% 29.58 in 10.0 mi NNW 3.5 mph - N/A   Overcast
3:35 AM 32.0 °F 24.8 °F 28.4 °F 87% 29.58 in 10.0 mi NW 8.1 mph - N/A   Overcast
3:55 AM 35.6 °F 27.1 °F 26.6 °F 70% 29.57 in 10.0 mi NNW 12.7 mph 17.3 mph N/A   Overcast
4:15 AM 35.6 °F 26.2 °F 28.4 °F 75% 29.54 in 10.0 mi North 15.0 mph 24.2 mph N/A   Overcast
4:35 AM 35.6 °F 24.8 °F 28.4 °F 75% 29.52 in 10.0 mi North 19.6 mph 28.8 mph N/A   Overcast
4:55 AM 35.6 °F 25.5 °F 30.2 °F 81% 29.55 in 10.0 mi North 17.3 mph 26.5 mph N/A   Overcast
5:15 AM 35.6 °F 25.9 °F 30.2 °F 81% 29.54 in 10.0 mi North 16.1 mph 27.6 mph N/A   Overcast
5:35 AM 37.4 °F 27.5 °F 30.2 °F 75% 29.55 in 10.0 mi North 18.4 mph 25.3 mph N/A   Overcast
5:55 AM 37.4 °F 26.9 °F 30.2 °F 75% 29.55 in 10.0 mi North 20.7 mph 26.5 mph N/A   Overcast
6:15 AM 37.4 °F 27.2 °F 30.2 °F 75% 29.55 in 10.0 mi North 19.6 mph 31.1 mph N/A   Overcast
6:35 AM 35.6 °F 24.5 °F 30.2 °F 81% 29.56 in 9.0 mi North 20.7 mph 29.9 mph N/A   Mostly Cloudy
6:55 AM 33.8 °F 22.2 °F 32.0 °F 93% 29.56 in 1.5 mi North 20.7 mph 29.9 mph N/A Snow Light Snow
7:15 AM 32.0 °F 20.1 °F 32.0 °F 100% 29.58 in 1.0 mi North 19.6 mph 31.1 mph N/A Snow Light Snow
7:35 AM 32.0 °F 20.5 °F 32.0 °F 100% 29.59 in 0.8 mi NNW 18.4 mph 21.9 mph N/A Snow Light Snow
7:55 AM 32.0 °F 21.2 °F 32.0 °F 100% 29.61 in 0.5 mi NNW 16.1 mph 28.8 mph N/A Snow Snow
8:15 AM 32.0 °F 20.8 °F 32.0 °F 100% 29.60 in 0.5 mi NNW 17.3 mph 24.2 mph N/A Snow Snow
8:35 AM 32.0 °F 21.6 °F 32.0 °F 100% 29.61 in 1.2 mi NNW 15.0 mph 21.9 mph 0.01 in Snow Light Snow
8:55 AM 32.0 °F 20.8 °F 32.0 °F 100% 29.62 in 0.8 mi North 17.3 mph 26.5 mph 0.01 in Snow Light Snow
9:15 AM 32.0 °F 19.8 °F 32.0 °F 100% 29.61 in 0.8 mi North 20.7 mph 29.9 mph N/A Snow Light Snow
9:35 AM 32.0 °F 20.5 °F 32.0 °F 100% 29.61 in 5.0 mi North 18.4 mph 29.9 mph N/A Snow Light Snow
9:55 AM 32.0 °F 21.2 °F 32.0 °F 100% 29.60 in 10.0 mi North 16.1 mph 21.9 mph N/A   Clear
10:15 AM 32.0 °F 22.1 °F 32.0 °F 100% 29.62 in 10.0 mi NW 13.8 mph - N/A   Partly Cloudy
10:35 AM 33.8 °F 23.9 °F 32.0 °F 93% 29.62 in 10.0 mi NW 15.0 mph - N/A   Mostly Cloudy
10:55 AM 35.6 °F 25.2 °F 32.0 °F 87% 29.62 in 10.0 mi NW 18.4 mph - N/A   Scattered Clouds
11:15 AM 35.6 °F 23.4 °F 32.0 °F 87% 29.62 in 10.0 mi NW 25.3 mph 31.1 mph N/A   Clear
11:35 AM 37.4 °F 26.1 °F 30.2 °F 75% 29.60 in 10.0 mi NNW 24.2 mph 31.1 mph N/A   Clear
11:55 AM 37.4 °F 26.4 °F 28.4 °F 70% 29.61 in 10.0 mi NNW 23.0 mph 38.0 mph N/A   Clear
12:15 PM 39.2 °F 28.0 °F 28.4 °F 65% 29.61 in 10.0 mi NW 26.5 mph 39.1 mph N/A   Clear
12:35 PM 41.0 °F 30.9 °F 28.4 °F 61% 29.61 in 10.0 mi NW 24.2 mph 35.7 mph N/A   Clear
12:55 PM 41.0 °F 29.7 °F 26.6 °F 57% 29.60 in 10.0 mi NW 31.1 mph 40.3 mph N/A   Clear
1:15 PM 42.8 °F 31.9 °F 26.6 °F 53% 29.60 in 10.0 mi NW 32.2 mph 41.4 mph N/A   Clear
1:35 PM 42.8 °F 31.3 °F 24.8 °F 49% 29.61 in 10.0 mi NW 36.8 mph 47.2 mph N/A   Partly Cloudy
1:55 PM 41.0 °F 29.5 °F 24.8 °F 53% 29.62 in 10.0 mi NW 32.2 mph 44.9 mph N/A   Scattered Clouds
2:15 PM 41.0 °F 29.0 °F 23.0 °F 49% 29.63 in 10.0 mi NW 35.7 mph 48.3 mph N/A   Scattered Clouds
2:35 PM 41.0 °F 28.8 °F 23.0 °F 49% 29.63 in 10.0 mi NW 36.8 mph 44.9 mph N/A   Mostly Cloudy
2:55 PM 41.0 °F 29.3 °F 23.0 °F 49% 29.64 in 10.0 mi NW 33.4 mph 46.0 mph N/A   Overcast
3:15 PM 39.2 °F 27.0 °F 23.0 °F 52% 29.66 in 10.0 mi NW 32.2 mph 40.3 mph N/A   Mostly Cloudy
3:35 PM 37.4 °F 25.0 °F 23.0 °F 56% 29.68 in 10.0 mi NW 29.9 mph 44.9 mph N/A   Scattered Clouds
3:55 PM 37.4 °F 24.4 °F 21.2 °F 52% 29.69 in 10.0 mi NW 33.4 mph 44.9 mph N/A   Mostly Cloudy
4:15 PM 37.4 °F 25.0 °F 23.0 °F 56% 29.71 in 10.0 mi NW 29.9 mph 38.0 mph N/A   Mostly Cloudy
4:35 PM 35.6 °F 22.7 °F 21.2 °F 56% 29.72 in 10.0 mi NW 28.8 mph 36.8 mph N/A   Overcast
4:55 PM 33.8 °F 19.6 °F 19.4 °F 56% 29.74 in 10.0 mi NW 32.2 mph 38.0 mph N/A   Overcast
5:15 PM 32.0 °F 18.9 °F 21.2 °F 64% 29.75 in 10.0 mi NW 24.2 mph 39.1 mph N/A   Overcast
5:35 PM 32.0 °F 18.4 °F 19.4 °F 60% 29.75 in 10.0 mi NW 26.5 mph 33.4 mph N/A   Overcast
5:55 PM 32.0 °F 20.5 °F 19.4 °F 60% 29.76 in 10.0 mi NW 18.4 mph 28.8 mph N/A   Overcast
6:15 PM 32.0 °F 20.5 °F 19.4 °F 60% 29.76 in 10.0 mi NW 18.4 mph 24.2 mph N/A   Overcast
6:35 PM 32.0 °F 21.2 °F 19.4 °F 60% 29.77 in 10.0 mi NW 16.1 mph - N/A   Mostly Cloudy
6:55 PM 32.0 °F 20.5 °F 19.4 °F 60% 29.77 in 10.0 mi NW 18.4 mph 23.0 mph N/A   Partly Cloudy
7:15 PM 32.0 °F 20.1 °F 17.6 °F 55% 29.78 in 10.0 mi NW 19.6 mph 26.5 mph N/A   Clear
7:35 PM 32.0 °F 18.6 °F 17.6 °F 55% 29.78 in 10.0 mi NW 25.3 mph 31.1 mph N/A   Clear
7:55 PM 32.0 °F 19.2 °F 15.8 °F 51% 29.79 in 10.0 mi NW 23.0 mph 27.6 mph N/A   Clear
8:15 PM 30.2 °F 17.8 °F 15.8 °F 55% 29.80 in 10.0 mi NW 19.6 mph 25.3 mph N/A   Clear
8:35 PM 30.2 °F 18.5 °F 15.8 °F 55% 29.80 in 10.0 mi NW 17.3 mph 26.5 mph N/A   Clear
8:55 PM 28.4 °F 16.6 °F 15.8 °F 59% 29.80 in 10.0 mi NW 16.1 mph 20.7 mph N/A   Clear
9:15 PM 28.4 °F 17.0 °F 15.8 °F 59% 29.80 in 10.0 mi NW 15.0 mph - N/A   Clear
9:35 PM 28.4 °F 17.0 °F 15.8 °F 59% 29.80 in 10.0 mi NW 15.0 mph - N/A   Clear
9:55 PM 28.4 °F 16.2 °F 15.8 °F 59% 29.80 in 10.0 mi WNW 17.3 mph - N/A   Clear
10:15 PM 28.4 °F 15.8 °F 15.8 °F 59% 29.81 in 10.0 mi WNW 18.4 mph - N/A   Clear
10:35 PM 26.6 °F 15.7 °F 15.8 °F 64% 29.81 in 10.0 mi WNW 12.7 mph - N/A   Clear
10:55 PM 26.6 °F 15.7 °F 15.8 °F 64% 29.81 in 10.0 mi WNW 12.7 mph - N/A   Clear
11:15 PM 26.6 °F 16.2 °F 15.8 °F 64% 29.81 in 10.0 mi West 11.5 mph - N/A   Clear
11:35 PM 24.8 °F 15.3 °F 15.8 °F 69% 29.81 in 10.0 mi West 9.2 mph - N/A   Clear
11:55 PM 24.8 °F 15.3 °F 15.8 °F 69% 29.81 in 10.0 mi West 9.2 mph - N/A   Clear